VANGUARD R/B, 16

Orbit data source: Space-Track

VANGUARD R/B, 16 is space debris in LEO originally from a launch on Mon, 17 Mar 1958 UTC launched from the Air Force Eastern Test Range (AFETR). Debris objects in space refer to the collection of defunct objects orbiting the Earth. Examples of debris include non-operational satellites, rocket bodies, and fragments generated from explosions, collisions, or faulty payload assembly.

Loading next visibility...
Identifier
16, 1958-002A
Orbit
LEO
Country
Flag of USUS
Related business
Manufacturer
GCR/Redlands
Mission
Spacecraft
Bus & Motor
33-KS-2800, Unknown motor
Mass
22 kg wet, 22 kg dry
Launch date (UTC)
1958-03-17 (68 years ago)
Launch vehicle
Unknown
Launch site
Air Force Eastern Test Range (AFETR)
Object type
Payload
Rocket body
Debris
Shape & HBR
CYL, 0.8 m
Radar Cross Section
Medium (>0.1 m² and <1 m²)

Expand to show TLE details & history
Last TLE update: 6 hours ago

TLE from 6 hours ago
0 VANGUARD R/B
1 00016U 58002A   26247.92498301  .00000119  00000-0  19527-3 0  9997
2 00016  34.2602  74.5460 2016173  97.2440 286.0200 10.49618907697294
Epoch: 2026-09-04T22:11Z
TLE epoch observation values (Epoch: 2026-09-04T22:11:58.532Z)
Latitude
0.00005°
Longitude
117.51037°
Altitude
2,292.882 km
Speed
6.836 km/s
True Right ascension
04h 58m 11s
True Declination
0° 00' 00"
Sunlit
Object was in daylight at epoch
Visualization orbit readout
Latitude
Unknown
Longitude
Unknown
Altitude
Unknown
Speed
Unknown
Apparent Right ascension
Unknown
Apparent Declination
Unknown
Sunlit
N/A
Visualization observer readout
Local Sidereal Time
19:55:54
Azimuth
Unknown
Elevation
Unknown
Doppler factor
Unknown
Orbital elements
Apogee altitude
4,213.215 km
Perigee altitude
659.006 km
Semi-major axis
8,814.247 km
Eccentricity
0.20162
Inclination
34.2602°
RAAN
74.546°
Arg. of periapsis
97.244°
True anomaly
262.81512°
Mean anomaly
286.02°
Eccentric anomaly
274.50385°
Mean motion
2.6228 °/min
Orbital period
137.26 mins
BSTAR
0.00019527
Loading maneuver chart data...
Computing Atmospheric mass density...
Loading historical data...
Loading historical data...
Loading historical data...
Loading historical data...
Loading historical data...
Loading historical data...
Loading historical data...
Other satellites on launch #2 in the year 1958 (1958-03-17 UTC)

Documentation

Showing up to 5 results
|